TimeEST,TemperatureF,Dew PointF,Humidity,Sea Level PressureIn,VisibilityMPH,Wind Direction,Wind SpeedMPH,Gust SpeedMPH,PrecipitationIn,Events,Conditions,WindDirDegrees,DateUTC
12:53 AM,3.9,-4.0,70,30.31,10.0,West,5.8,-,N/A,,Mostly Cloudy,270,2013-01-23 05:53:00
1:53 AM,3.0,-5.1,69,30.30,10.0,West,5.8,-,N/A,,Clear,260,2013-01-23 06:53:00
2:53 AM,1.9,-5.1,72,30.31,10.0,WSW,5.8,-,N/A,,Clear,250,2013-01-23 07:53:00
3:53 AM,1.9,-5.1,72,30.30,10.0,WSW,4.6,-,N/A,,Clear,240,2013-01-23 08:53:00
4:53 AM,1.9,-5.1,72,30.30,10.0,WSW,6.9,-,N/A,,Clear,250,2013-01-23 09:53:00
5:53 AM,1.9,-5.1,72,30.29,10.0,WSW,5.8,-,N/A,,Clear,240,2013-01-23 10:53:00
6:53 AM,1.0,-5.1,75,30.28,10.0,SSW,5.8,-,N/A,,Clear,210,2013-01-23 11:53:00
7:53 AM,1.9,-4.0,76,30.27,10.0,SW,8.1,-,N/A,,Mostly Cloudy,220,2013-01-23 12:53:00
8:53 AM,5.0,-2.0,73,30.27,10.0,SW,8.1,-,N/A,,Overcast,220,2013-01-23 13:53:00
9:53 AM,8.1,-2.0,64,30.27,10.0,SSW,11.5,-,N/A,,Overcast,210,2013-01-23 14:53:00
10:53 AM,10.0,-0.9,61,30.26,10.0,SW,8.1,-,N/A,,Overcast,220,2013-01-23 15:53:00
11:53 AM,12.9,1.9,62,30.23,7.0,SSW,9.2,-,N/A,,Overcast,200,2013-01-23 16:53:00
12:53 PM,14.0,5.0,67,30.19,2.5,SW,9.2,-,0.00,Snow,Light Snow,220,2013-01-23 17:53:00
1:20 PM,15.8,5.0,62,30.11,3.0,SW,9.2,-,0.00,Snow,Light Snow,220,2013-01-23 18:20:00
1:33 PM,15.8,6.8,68,30.11,2.0,SW,10.4,-,0.00,Snow,Light Snow,230,2013-01-23 18:33:00
1:53 PM,16.0,7.0,68,30.15,1.5,SW,9.2,-,0.00,Snow,Light Snow,220,2013-01-23 18:53:00
2:08 PM,15.8,6.8,68,30.09,3.0,WSW,9.2,17.3,0.00,Snow,Light Snow,240,2013-01-23 19:08:00
2:11 PM,15.8,6.8,68,30.09,2.5,WSW,8.1,-,0.00,Snow,Light Snow,240,2013-01-23 19:11:00
2:53 PM,17.1,8.1,68,30.12,2.5,SW,11.5,-,0.00,Snow,Light Snow,230,2013-01-23 19:53:00
3:43 PM,17.6,8.6,68,30.06,4.0,SW,13.8,19.6,0.00,,Haze,220,2013-01-23 20:43:00
3:53 PM,17.1,8.1,68,30.11,2.0,SSW,9.2,-,0.00,,Haze,210,2013-01-23 20:53:00
4:49 PM,15.8,10.4,79,30.05,0.5,SW,8.1,-,0.00,Snow,Snow,230,2013-01-23 21:49:00
4:50 PM,16.0,10.9,81,30.11,0.5,SW,9.2,-,0.00,Snow,Snow,220,2013-01-23 21:50:00
5:20 PM,15.8,10.4,79,30.05,1.0,WSW,10.4,-,0.01,Snow,Light Snow,240,2013-01-23 22:20:00
5:50 PM,15.8,10.4,79,30.05,3.0,SW,9.2,-,0.01,Snow,Light Snow,220,2013-01-23 22:50:00
5:53 PM,15.1,10.0,80,30.11,3.0,SW,5.8,-,0.01,Snow,Light Snow,220,2013-01-23 22:53:00
6:53 PM,15.1,9.0,77,30.11,3.0,SW,8.1,-,0.01,Snow,Light Snow,230,2013-01-23 23:53:00
7:07 PM,15.8,10.4,79,30.05,2.0,SW,6.9,-,0.00,Snow,Light Snow,230,2013-01-24 00:07:00
7:40 PM,15.8,10.4,79,30.05,3.0,SSW,5.8,-,0.00,Snow,Light Snow,210,2013-01-24 00:40:00
7:53 PM,15.1,10.0,80,30.10,3.0,SW,5.8,-,0.00,Snow,Light Snow,220,2013-01-24 00:53:00
8:02 PM,15.8,10.4,79,30.04,2.5,SW,4.6,-,0.00,Snow,Light Snow,220,2013-01-24 01:02:00
8:41 PM,15.8,8.6,73,30.05,3.0,WSW,6.9,-,0.01,,Haze,240,2013-01-24 01:41:00
8:53 PM,15.1,9.0,77,30.11,5.0,WSW,6.9,-,0.01,,Haze,240,2013-01-24 01:53:00
9:53 PM,14.0,9.0,80,30.12,4.0,West,4.6,-,0.00,Snow,Light Snow,260,2013-01-24 02:53:00
10:07 PM,14.0,8.6,79,30.07,2.0,WSW,3.5,-,0.00,Snow,Light Snow,250,2013-01-24 03:07:00
10:16 PM,14.0,8.6,79,30.07,1.8,Calm,Calm,-,0.00,Snow,Light Snow,0,2013-01-24 03:16:00
10:24 PM,14.0,8.6,79,30.07,3.0,Calm,Calm,-,0.00,Snow,Light Snow,0,2013-01-24 03:24:00
10:53 PM,14.0,9.0,80,30.13,2.0,West,4.6,-,0.00,Snow,Light Snow,270,2013-01-24 03:53:00
10:59 PM,14.0,8.6,79,30.08,0.8,West,3.5,-,0.00,Snow,Light Snow,270,2013-01-24 03:59:00
11:17 PM,14.0,10.4,86,30.08,1.8,West,4.6,-,0.01,Snow,Light Snow,270,2013-01-24 04:17:00
11:22 PM,14.0,10.4,86,30.08,3.0,West,4.6,-,0.01,Snow,Light Snow,280,2013-01-24 04:22:00
11:31 PM,14.0,10.4,86,30.08,2.0,West,5.8,-,0.01,Snow,Light Snow,280,2013-01-24 04:31:00
11:49 PM,14.0,10.4,86,30.09,1.8,WNW,5.8,-,0.01,Snow,Light Snow,300,2013-01-24 04:49:00
11:53 PM,14.0,10.0,84,30.15,2.0,NW,5.8,-,0.01,Snow,Light Snow,310,2013-01-24 04:53:00